TIME,DELAY(SENSOR),PRES,T(CTD),SAL,OXYGEN,RAWTEMP,T(OPTODE),TCPHASE,FLUOR,BETA(BETA700),BETA(BETA412),BETA(BETA440),CDOM,C(CSC),ED(ED412.40),ED(ED444.00),ED(ED489.70),ED(ED554.30),LU(LU411.80),LU(LU443.40),LU(LU489.60),LU(LU554.10),COMP,TILTX,TILTX(TILTY),CHECK
1366753727,5807,495.7300109863281000,7.1367001533508300,34.1025009155273440,97.5917663574218800,583.5214233398438000,7.1153111457824710,46.6931190490722660,52,104,91,80,76,14786,2147746002,2147424557,2148005120,2147875931,2147627245,2147076617,2148244562,2147201005,436,4,13,14220
1366753864,5806,484.5400085449219000,7.4468998908996580,34.0905990600585940,109.6770019531250000,573.6018066406250000,7.4337811470031740,45.2844085693359400,52,104,90,79,76,14785,2147744548,2147426459,2148003072,2147874633,2147627081,2147075666,2148241444,2147199222,2833,4,13,51733
1366753991,5812,473.0599975585937500,7.6069998741149900,34.0876007080078100,117.2284011840820300,567.1254882812500000,7.6412301063537600,44.4351882934570300,51,104,86,80,76,14781,2147743826,2147424960,2148002752,2147875885,2147623853,2147074870,2148242541,2147201353,2296,4,13,8814
1366754108,5812,462.5899963378906000,7.8524999618530270,34.0850982666015600,125.4341964721679700,559.8256225585938000,7.8746299743652340,43.5376586914062500,51,103,90,80,75,14780,2147744640,2147424429,2148003995,2147877476,2147620388,2147078116,2148238290,2147202816,1293,4,13,60621
1366754235,5807,451.3800048828125000,8.1764001846313480,34.0895996093750000,135.9635009765625000,550.9229125976562000,8.1586608886718750,42.4388618469238300,50,103,87,79,74,14783,2147741997,2147424576,2148004333,2147872758,2147622171,2147081444,2148235072,2147203995,3410,4,13,52207
1366754350,5810,440.3999938964844000,8.4077997207641600,34.0875015258789060,145.6235046386718800,543.7485961914062000,8.3870697021484380,41.4913902282714840,51,103,86,80,75,14783,2147742345,2147423789,2148002624,2147875136,2147620653,2147086829,2148235666,2147201188,2759,4,13,63086
1366754468,5807,428.7300109863281000,8.5704002380371100,34.0862998962402340,155.0200042724609400,538.3364257812500000,8.5591030120849610,40.6362113952636700,50,102,88,80,74,14783,2147739373,2147427008,2148004918,2147875227,2147617316,2147084379,2148232000,2147203876,1124,4,13,49102
1366754571,5806,418.1700134277344000,8.6823997497558600,34.0679016113281250,174.0565032958984400,534.6046752929688000,8.6775856018066400,39.1444091796875000,50,103,87,80,74,14785,2147740288,2147426806,2148003556,2147875483,2147616877,2147084745,2148233984,2147201453,1663,4,13,43778
1366754686,5809,406.6600036621094000,8.9345998764038090,34.0807991027832000,180.4192962646484400,527.0662841796875000,8.9165973663330080,38.5678596496582000,49,104,85,80,73,14787,2147736283,2147428617,2148004854,2147871186,2147617526,2147082660,2148234633,2147204123,720,4,13,49964
1366754804,5809,397.2099914550781000,9.2271995544433600,34.0934982299804700,178.4835052490234400,518.0903930664062000,9.2006206512451170,38.5454711914062500,50,104,89,79,72,14783,2147739364,2147424219,2148004553,2147875922,2147616548,2147086875,2148233097,2147199515,3320,4,13,18524
1366755015,5809,386.8200073242187500,9.4205999374389650,34.0979003906250000,176.9945983886718800,512.0900878906250000,9.3901519775390620,38.5452995300293000,50,107,86,80,71,14779,2147735277,2147426560,2148004452,2147875373,2147614674,2147088621,2148229723,2147201115,3582,4,13,65473
1366755219,5812,374.8599853515625000,9.8297004699707030,34.1067008972168000,184.6956024169922000,498.6559143066406000,9.8135585784912110,37.7875213623046900,50,105,84,81,72,14780,2147733604,2147422089,2148002038,2147875456,2147611190,2147096054,2148223012,2147203090,2039,4,13,33870
1366755415,5807,361.8500061035156000,10.0542001724243160,34.1153984069824200,187.6636047363281200,490.2199096679687500,10.0787897109985350,37.4462394714355500,50,106,87,79,71,14776,2147732315,2147424338,2148004425,2147876443,2147610038,2147094317,2148226459,2147202102,565,4,13,10549
1366755555,5810,349.6600036621094000,10.3991003036499020,34.1203994750976560,194.2084045410156200,480.4493103027344000,10.3853902816772460,36.8575515747070300,49,103,89,79,71,14781,2147734454,2147425197,2148006070,2147873609,2147609609,2147101604,2148224475,2147203785,2467,4,13,29878
1366755684,5808,338.5299987792969000,11.1048002243042000,34.1328010559082000,203.1625061035156200,457.8158874511719000,11.0932998657226560,35.9275207519531250,48,106,85,80,69,14778,2147733677,2147424896,2148008886,2147876150,2147608795,2147099474,2148222509,2147205248,1270,3,13,2535
1366755811,5807,327.6900024414062500,11.4145002365112300,34.1372985839843750,204.9824981689453000,447.5018005371094000,11.4148797988891600,35.6502609252929700,49,103,86,79,70,14780,2147727716,2147427465,2148010166,2147877449,2147602230,2147107794,2148225974,2147204809,61,4,13,48401
1366755950,5810,316.4500122070312500,11.9172000885009770,34.1576004028320300,209.3076019287109400,431.2984924316406000,11.9188804626464840,35.1343307495117200,48,106,84,80,69,14777,2147728850,2147427702,2148015917,2147874797,2147602313,2147107858,2148223835,2147204955,378,3,13,24900
1366756092,5807,306.0700073242187500,12.5591001510620120,34.1987991333007800,214.1011962890625000,409.9637145996094000,12.5804300308227540,34.5220909118652340,48,104,87,79,68,14778,2147728384,2147427456,2148020150,2147876854,2147598802,2147113362,2148223314,2147205641,2963,3,13,62926
1366756267,5809,294.7699890136719000,13.2737998962402340,34.2401008605957000,215.9976959228515600,387.2304992675781000,13.2830295562744140,34.0637092590332000,48,104,85,79,68,14774,2147725321,2147434422,2148031972,2147873334,2147593654,2147125814,2148217773,2147208374,638,4,14,5222
1366756415,5810,282.6900024414062500,14.1483001708984380,34.3311996459960940,217.1423034667968800,359.2709045410156000,14.1443099975585940,33.5755195617675800,47,103,88,79,67,14777,2147721764,2147438116,2148048630,2147875812,2147590957,2147128850,2148224054,2147207332,57,3,13,6316
1366756542,5808,270.5299987792969000,14.8131999969482420,34.3956985473632800,217.2689971923828000,337.7532958984375000,14.8053503036499020,33.2481803894043000,48,104,90,80,67,14769,2147718171,2147447186,2148073526,2147875904,2147587766,2147142125,2148232493,2147211666,2736,3,14,64264
1366756659,5807,259.5499877929687500,15.4504995346069340,34.4655990600585940,216.7996978759765600,317.3554992675781000,15.4307804107666020,32.9740715026855500,48,104,86,80,67,14771,2147717293,2147457846,2148103789,2147873865,2147585033,2147151177,2148241718,2147210825,2349,3,14,14154
1366756786,5812,248.1499938964843800,15.5724000930786130,34.4850997924804700,218.3936004638672000,312.3702087402344000,15.5834903717041020,32.8151206970214840,50,104,83,79,67,14769,2147716416,2147467657,2148133997,2147877321,2147584621,2147162843,2148257307,2147214162,1390,4,14,32193
1366756901,5807,237.8000030517578000,16.1515007019042970,34.5522003173828100,218.0671997070312500,293.3344116210937500,16.1661300659179700,32.5580711364746100,49,103,86,80,66,14769,2147719021,2147498432,2148202742,2147873362,2147581732,2147181312,2148289481,2147219035,464,3,14,26733
1366757043,5808,226.7100067138672000,16.7555007934570300,34.6253013610839840,216.3545989990234400,274.2189025878906000,16.7506008148193360,32.3773918151855500,48,104,83,80,66,14768,2147720493,2147515081,2148240640,2147875026,2147580288,2147194075,2148305856,2147220324,107,3,14,99
1366757182,5810,215.9400024414062500,17.2677001953125000,34.6918983459472660,214.6201934814453000,254.9167022705078000,17.3403701782226560,32.1987304687500000,49,106,86,79,65,14761,2147730505,2147587456,2148426934,2147875693,2147580644,2147245376,2148390774,2147224667,1932,2,14,65531
1366757330,5809,202.8699951171875000,18.2280998229980470,34.8227005004882800,212.5382995605468800,225.8094940185547000,18.2293090820312500,31.9057693481445300,50,105,85,80,64,14758,2147749284,2147660288,2148567122,2147876580,2147587849,2147289142,2148464219,2147229275,100,3,14,41943
1366757385,5809,197.3500061035156200,18.4937000274658200,34.8656997680664060,213.5942993164062500,217.0162048339843800,18.4978408813476560,31.7269706726074220,52,106,86,81,64,14752,2147761682,2147713353,2148682258,2147874432,2147592082,2147327387,2148515017,2147237403,2960,3,14,46596
1366757440,5809,192.0800018310547000,19.1245994567871100,34.9528007507324200,214.4058074951172000,195.6080932617187500,19.1517601013183600,31.3898296356201170,55,109,89,80,65,14749,2147758592,2147687744,2148600996,2147876489,2147589540,2147320548,2148481782,2147232036,3216,2,15,34334
1366757495,5810,187.3899993896484400,19.3232994079589840,34.9856986999511700,215.9020996093750000,190.3563995361328000,19.3122196197509770,31.2387790679931640,57,109,90,80,63,14750,2147798939,2147858450,2148987766,2147877824,2147607488,2147426029,2148666313,2147245814,2945,2,15,716
1366757550,5808,183.0000000000000000,19.5748996734619140,35.0163002014160160,216.1221008300781200,182.3975067138672000,19.5554599761962900,31.1194190979003900,62,113,86,81,63,14741,2147823762,2147933184,2149146541,2147879881,2147614473,2147471113,2148738422,2147250386,2861,2,15,14827
1366757626,5808,177.7200012207031200,19.8204994201660160,35.0355987548828100,214.8394012451172000,174.2702026367187500,19.8039207458496100,31.0777797698974600,66,118,86,82,64,14736,2147859026,2148037248,2149341632,2147878491,2147628324,2147528658,2148818633,2147253613,2576,3,15,5985
1366757681,5809,174.2200012207031200,19.9085998535156250,35.0330009460449200,212.0124969482422000,171.0384979248047000,19.9027500152587900,31.1857604980468750,69,117,89,81,63,14729,2147898185,2148129133,2149504978,2147879625,2147641664,2147581696,2148892004,2147265216,2383,2,15,24880
1366757748,5808,169.9400024414062500,20.1065006256103500,35.0517997741699200,210.7864074707031200,164.4889984130859400,20.1030807495117200,31.1637001037597660,73,118,89,81,64,14722,2147958226,2148275940,2149758939,2147880566,2147661988,2147652187,2149003081,2147265792,1708,2,15,10882
1366757815,5808,165.5800018310547000,20.2665996551513670,35.0682983398437500,210.8058013916015600,159.4826049804687500,20.2562503814697270,31.0955696105957030,78,121,91,83,64,14718,2148047085,2148464557,2150075081,2147881718,2147697956,2147753517,2149146377,2147281362,829,2,15,40499
1366757870,5808,161.6999969482422000,20.5273990631103500,35.0912017822265600,209.5330963134765600,148.9519042968750000,20.5786094665527340,31.0232791900634770,86,121,88,82,64,14707,2148141321,2148667401,2150414006,2147886125,2147736045,2147855469,2149289490,2147290322,1190,3,15,892
1366757948,5808,156.9400024414062500,20.9062995910644530,35.1419982910156250,211.3401947021484400,139.3840026855468800,20.8716907501220700,30.7981491088867200,89,120,87,81,64,14708,2148299858,2148984365,2150917632,2147891017,2147796278,2148011117,2149501193,2147306157,1629,2,15,61441
1366758015,5809,153.3600006103515600,21.0785007476806640,35.1641998291015600,212.6739959716797000,134.3647003173828000,21.0255203247070300,30.6600608825683600,94,123,90,81,62,14698,2148191003,2148619245,2150112064,2147887296,2147757257,2147832182,2149159771,2147288630,2254,2,15,54015
1366758094,5807,149.3300018310547000,21.1569004058837900,35.1775016784668000,215.2077026367187500,130.5341033935547000,21.1429595947265620,30.4759502410888670,97,122,86,83,62,14700,2148615332,2149553517,2151775625,2147900434,2147912612,2148291081,2149853120,2147338313,3075,2,16,64023
1366758173,5806,145.5500030517578000,21.1783008575439450,35.1795997619628900,216.5608062744140600,129.5518951416015600,21.1730804443359380,30.3924293518066400,99,121,90,81,63,14699,2148382656,2148911926,2150508525,2147888054,2147824274,2147946678,2149272210,2147297280,3162,2,15,29386
1366758255,5809,141.8300018310547000,21.2877998352050780,35.1874008178710940,217.0050048828125000,126.1342010498046900,21.2779006958007800,30.3243293762207030,98,122,87,84,62,14695,2148677238,2149492013,2151462299,2147899684,2147933860,2148218706,2149635876,2147322560,2849,2,15,30075
1366758358,5808,137.9299926757812500,21.3521995544433600,35.1825981140136700,217.0039062500000000,123.8660964965820300,21.3474807739257800,30.2945308685302730,111,129,90,83,63,14679,2149330029,2150723657,2153470976,2147920731,2148188544,2148800493,2150481051,2147391661,2122,2,15,25469
1366758473,5807,133.9700012207031200,21.5983009338378900,35.1896018981933600,216.8141021728515600,116.2744979858398400,21.5804805755615230,30.2049598693847660,112,127,91,83,62,14675,2150094582,2152062235,2155586313,2147947702,2148468452,2149405257,2151320009,2147459126,1609,2,15,54676
1366758584,5811,129.6900024414062500,21.7579994201660160,35.1968002319335940,217.1322937011718800,110.8159027099609400,21.7481193542480470,30.1171092987060550,124,134,90,84,62,14649,2150964196,2153404653,2157468672,2147971931,2148753289,2149910473,2151983515,2147512832,1267,2,16,17428
1366758675,5809,125.1200027465820300,21.8302993774414060,35.2025985717773440,217.9517059326172000,108.8747024536132800,21.8077602386474600,30.0498600006103500,128,131,90,83,62,14647,2152152246,2155218706,2159976621,2148015780,2149153042,2150598838,2152855277,2147596205,1489,2,16,41509
1366758742,5808,121.4700012207031200,21.9687004089355470,35.2173004150390600,219.2931060791015600,104.0726013183593800,21.9553394317626950,29.9187202453613280,136,127,91,82,62,14639,2153291803,2156898523,2162208182,2148054162,2149548525,2151246555,2153673910,2147669494,1851,2,16,22849
1366758821,5811,117.1299972534179700,22.0093994140625000,35.2085990905761700,219.4705047607422000,102.3851013183593800,22.0072193145751950,29.8878593444824220,148,130,91,82,63,14633,2154519680,2158477302,2164008420,2148097225,2149931181,2151769636,2154201033,2147731081,1891,2,16,51246
1366758891,5806,113.4000015258789000,22.1023006439209000,35.2128982543945300,219.6945037841797000,99.2950363159179700,22.1022396087646500,29.8364391326904300,146,131,90,84,62,14623,2151526372,2153177965,2155713828,2147974464,2148885897,2149553956,2151094217,2147471597,1512,2,16,47658
1366758970,5810,109.7799987792968800,22.1994991302490230,35.2182006835937500,220.4461975097656200,97.1541137695312500,22.1680908203125000,29.7706508636474600,153,132,90,84,61,14618,2154221568,2157152411,2161007552,2148069604,2149779318,2151056512,2152961755,2147641170,1069,2,16,17642
1366759073,5805,106.1100006103515600,22.2812995910644530,35.2253990173339840,221.7646026611328000,93.7628936767578100,22.2724399566650400,29.6607093811035160,157,132,91,85,62,14615,2152766774,2154495021,2156822537,2148005504,2149288109,2149984932,2151446272,2147518080,719,2,15,36334
1366759212,5811,101.5699996948242200,22.3819007873535160,35.2350997924804700,223.6488952636718800,90.2544326782226600,22.3804302215576170,29.5216808319091800,155,129,91,86,62,14605,2156230555,2158891163,2161736795,2148113901,2150460187,2151640466,2153247524,2147700461,292,2,16,46241
1366759279,5806,98.3300018310546900,22.6103000640869140,35.2588996887207000,225.6434020996093800,83.0121231079101600,22.6034908294677730,29.3309593200683600,153,132,90,85,63,14592,2164325174,2169668653,2174376228,2148404992,2153339684,2155887222,2158035136,2148176265,752,2,15,52742
1366759334,5807,95.8099975585937500,22.7339992523193360,35.2708015441894500,228.4282989501953000,79.0445709228515600,22.7257804870605470,29.1453895568847660,120,123,91,84,61,14613,2170401426,2177480146,2183223533,2148686317,2155488969,2158792685,2160981165,2148483712,799,2,15,26715
1366759389,5806,93.4100036621093800,22.8682994842529300,35.2795982360839840,230.0621032714843800,75.1096801757812500,22.8471202850341800,29.0171298980712900,99,121,90,83,60,14633,2163186953,2166735926,2169220178,2148335917,2153353142,2155204681,2156523776,2148046656,548,2,15,46154
1366759444,5810,91.2099990844726600,22.9701004028320300,35.2887992858886700,230.9425964355468800,71.8474884033203100,22.9477596282959000,28.9337692260742200,86,121,92,83,60,14640,2173378304,2179631899,2183690998,2148770249,2157597010,2161082642,2162593353,2148654701,925,2,16,9448
1366759502,5807,89.0999984741211000,23.0515995025634770,35.2949981689453100,232.0744934082031200,68.9525299072265600,23.0371093750000000,28.8439006805419920,81,122,89,83,57,14642,2170094107,2174564068,2177000886,2148592694,2156776886,2159488685,2160389961,2148437430,1449,1,16,18221
1366759569,5807,86.9400024414062500,23.0916004180908200,35.2997016906738300,233.1390991210937500,67.3083496093750000,23.0878696441650400,28.7732505798339840,79,120,89,84,61,14645,2190821065,2200765147,2206534848,2149653522,2165629549,2171504640,2172436818,2149672365,1975,2,15,39387
1366759636,5804,84.9499969482421900,23.1382007598876950,35.3045997619628900,233.8377075195312500,65.7800292968750000,23.1350593566894530,28.7213191986084000,75,121,90,83,59,14645,2182432210,2188628818,2191383862,2149167981,2162860187,2166996096,2167024384,2149115117,1725,2,16,23854
1366759703,5808,83.0800018310546900,23.1933002471923830,35.3097991943359400,234.7003936767578000,63.9714202880859400,23.1909198760986330,28.6584892272949220,74,121,90,84,57,14639,2196385901,2204886491,2208649536,2149871972,2169758564,2175755254,2175107474,2149938450,1047,2,16,22823
1366759770,5810,81.3099975585937500,23.3078002929687500,35.3227005004882800,235.5666046142578000,60.4406394958496100,23.3000106811523440,28.5740108489990230,71,120,90,83,59,14644,2196856914,2204642084,2207906121,2149976914,2170359972,2175973430,2174669403,2149911670,280,2,15,54824
1366759848,5810,78.8199996948242200,23.4652996063232420,35.3367004394531250,236.7382049560547000,55.5075187683105500,23.4525299072265620,28.4583091735839840,66,122,88,85,59,14648,2175914880,2178088201,2177880859,2148844132,2162104713,2164293238,2162798336,2148684480,3174,1,16,60103
1366759903,5807,76.4199981689453100,23.5422992706298830,35.3455009460449200,238.3419036865234400,52.8435783386230500,23.5349292755126950,28.3517799377441400,64,120,91,83,57,14646,2177712594,2179572461,2179006564,2148969837,2164081124,2166126162,2163874395,2148799168,2955,2,16,58329
1366759958,5804,73.8700027465820300,23.6909999847412100,35.3629989624023440,239.4252929687500000,48.4462509155273440,23.6710300445556640,28.2478599548339840,62,119,92,83,56,14639,2180577654,2182296877,2181451081,2149199469,2166903552,2168849243,2165693467,2148990564,2632,1,16,289
1366760013,5806,71.2699966430664000,23.7647991180419920,35.3712005615234400,240.4694976806640600,45.7611694335937500,23.7541694641113280,28.1676197052001950,62,121,90,82,56,14646,2183360192,2184938852,2183857152,2149442413,2169927515,2171714560,2167579456,2149190756,2527,2,16,55468
1366760068,5804,68.7300033569336000,23.8076000213623050,35.3763008117675800,241.3278045654297000,44.2806396484375000,23.8000297546386720,28.1107196807861330,62,120,92,83,55,14635,2190233115,2192220041,2191075318,2150021476,2175688530,2177700406,2172072676,2149656173,2487,2,16,53043
1366760123,5809,66.1399993896484400,23.8449993133544920,35.3787002563476560,241.9161071777343800,42.9328804016113300,23.8417892456054700,28.0678005218505860,63,122,91,85,57,14637,2202922157,2206101394,2205227931,2151192274,2185542765,2188196498,2180136283,2150536594,2328,2,16,61826
1366760181,5807,63.3400001525878900,23.8596000671386720,35.3695983886718750,241.9683990478515600,42.4621887207031250,23.8563709259033200,28.0596504211425780,62,119,93,84,58,14633,2204624109,2207135433,2205724324,2151529069,2188788397,2190887853,2181652032,2150724032,2087,2,16,40457
1366760236,5811,60.8400001525878900,23.8584995269775400,35.3670005798339840,241.7631988525390600,42.4064292907714840,23.8581008911132800,28.0681095123291000,61,121,92,85,55,14638,2213850834,2216615625,2215117321,2152613641,2197175012,2199399305,2187946386,2151460425,1636,1,16,18082
1366760291,5812,58.4700012207031250,23.8666992187500000,35.3572998046875000,241.4506072998047000,41.9761581420898440,23.8714294433593750,28.0765895843505860,62,121,90,85,57,14636,2257861147,2264689984,2265024640,2157701467,2229298797,2234506706,2215729984,2154711177,1263,1,17,36421
1366760346,5807,56.3100013732910160,23.8939990997314450,35.3530998229980500,241.0260009765625000,41.1408882141113300,23.8973197937011720,28.0851097106933600,61,119,91,84,60,14639,2244476717,2248065444,2246550683,2156552100,2222519296,2225673362,2207635730,2153809572,1138,1,17,40232
1366760401,5807,54.4300003051757800,23.9141998291015620,35.3515014648437500,240.8643951416015600,40.5286788940429700,23.9162998199462900,28.0848808288574220,60,120,89,83,57,14637,2272529627,2278082962,2277423460,2160753115,2243081225,2247055104,2223625682,2155890962,1389,1,16,15812
1366760456,5809,52.7099990844726560,23.9806003570556640,35.3507003784179700,240.6506042480468800,38.3008117675781250,23.9853591918945300,28.0668201446533200,60,119,92,83,58,14633,2248848886,2250641746,2247760201,2157811565,2228866587,2230435629,2209865380,2154244662,1601,1,16,60009
1366760534,5805,50.2799987792968750,24.0912990570068360,35.3485984802246100,241.5171966552734400,34.7601013183593750,24.0951900482177730,27.9842395782470700,59,124,93,84,56,14628,2294138870,2297477430,2294467081,2164495872,2270445101,2272676150,2241004141,2158107254,1317,1,16,59492
1366760589,5807,48.0299987792968750,24.1749000549316400,35.3428993225097660,241.5563049316406200,31.7826194763183600,24.1875896453857420,27.9458103179931640,58,121,91,84,59,14620,2281904987,2283092452,2279321755,2163881993,2264993929,2264758701,2233791168,2157394358,823,2,15,12017
1366760644,5808,45.7799987792968750,24.2444992065429700,35.3409996032714840,241.7245941162109400,29.5916309356689450,24.2556095123291000,27.9110298156738280,56,120,96,83,62,14621,2286822473,2287222253,2283161828,2165935725,2270548489,2269395584,2235795465,2157857289,614,1,16,28097
1366760699,5807,43.6199989318847660,24.2933006286621100,35.3404998779296900,241.8536071777343800,28.2562694549560550,24.2970790863037100,27.8888492584228500,56,119,93,83,55,14624,2306512521,2307466989,2303848585,2170558454,2292311981,2289199405,2250059309,2159992310,108,1,16,9684
1366760754,5808,41.4000015258789060,24.3129997253417970,35.3399009704589840,242.0000000000000000,27.5092201232910160,24.3202800750732420,27.8732109069824220,55,118,92,83,54,14625,2284765348,2283586925,2279029193,2168422765,2276682468,2271474596,2235821083,2158480658,3299,1,16,2665
1366760809,5807,38.9900016784668000,24.3598003387451170,35.3376998901367200,242.1186065673828000,26.1138591766357420,24.3636302947998050,27.8507595062255860,55,118,94,86,58,14634,2298455570,2297433124,2293228818,2173382180,2294386249,2287938322,2247196498,2160426093,3145,1,16,31550
1366760888,5810,35.0400009155273440,24.5275993347167970,35.3292999267578100,241.7937927246093800,21.1001892089843750,24.5194702148437500,27.8033008575439450,53,120,91,84,58,14628,2270953581,2267645513,2262452672,2170317979,2272579986,2263023689,2227411867,2158376109,2561,2,16,24103
1366760943,5807,31.9200000762939450,24.6142005920410160,35.3277015686035160,241.5930023193359400,18.2605094909667970,24.6077899932861330,27.7771091461181640,53,118,93,85,55,14630,2272676818,2268568822,2263419803,2173456960,2278836461,2267038217,2229248886,2159219529,2971,2,17,57086
1366760998,5806,28.8600006103515620,24.7653999328613280,35.3067016601562500,241.1248016357422000,13.2541198730468750,24.7636203765869140,27.7362499237060550,51,117,91,84,54,14631,2279333869,2274593901,2269782555,2178875044,2290187840,2275935405,2234673938,2160810642,85,1,15,41815
1366761053,5809,26.2900009155273440,24.9095001220703120,35.2738990783691400,240.4579010009765600,8.6770172119140620,24.9062099456787100,27.7094993591308600,53,118,88,83,59,14629,2290476242,2285685074,2281063890,2185399296,2307203318,2290007131,2243642441,2163001060,3444,1,17,6229
1366761108,5809,24.3099994659423830,25.0249996185302730,35.2338981628418000,239.3551940917968800,5.0318598747253420,25.0198402404785160,27.7138690948486330,53,114,93,82,57,14634,2306148507,2301423808,2297355510,2194940918,2327957760,2307946678,2255594998,2165933266,52,1,16,46693
